Regional Weather Roundup
Issued by NWS Wakefield, VA

Home | Current Version | Previous Version | Graphics & Text | Print | Product List | Glossary On
Versions: 1 2 3 4 5 6 7 8 9 10 11 12 13 14 15 16 17 18 19 20 21 22 23 24 25 26 27 28 29 30 31 32 33 34 35 36 37 38 39 40 41 42 43 44 45 46 47 48 49 50
128
ASUS41 KAKQ 052215
RWRAKQ

REGIONAL WEATHER ROUNDUP
NATIONAL WEATHER SERVICE WAKEFIELD VA
500 PM EST MON DEC 05 2016

Note: "fair" indicates few or no clouds below 12,000 feet with no
significant weather and/or obstructions to visibility. * = Denotes
station may not report precipitation (e.g., rain,snow,etc.),
thunder or fog.

VAZ042-051-052>054-056-052300-
NORTHERN VIRGINIA

CITY           SKY/WX    TMP DP  RH WIND       PRES   REMARKS
WASH NATIONAL  CLOUDY    51  36  56 N9        30.05R
DULLES         CLOUDY    51  32  48 N5        30.05R
FORT BELVOIR   PTCLDY    53  34  48 CALM      30.04R
QUANTICO       PTCLDY    50  39  66 VRB3      30.05R
FREDERICKSBRG* CLEAR     48  43  82 SE3       30.04R
STAFFORD*      CLEAR     46  39  77 CALM      30.08R
WARRENTON      PTCLDY    45  35  69 CALM      30.03S
CULPEPER*      PTCLDY    47  42  80 CALM      30.05R
MANASSAS*      NOT AVBL
LEESBURG*      PTCLDY    52  36  54 CALM      30.06R
WINCHESTER     CLOUDY    46  32  57 NW5       30.05R
FRONT ROYAL*   FAIR      50  32  50 CALM      30.03S
LURAY*         FAIR      50  32  50 N6        30.02S
$$

VAZ048-049-060>072-079>083-052300-
CENTRAL AND SOUTH CENTRAL VIRGINIA

CITY           SKY/WX    TMP DP  RH WIND       PRES   REMARKS
RICHMOND       CLOUDY    47  40  76 NE5       30.04S
CHESTERFIELD*  FAIR      48  30  49 CALM      30.06R
PETERSBURG*    PTCLDY    43  42  94 CALM      30.05R
HANOVER        PTCLDY    45  42  89 CALM      30.06S
TAPPAHANNOCK*  PTCLDY    46  41  85 CALM      30.05S
QUINTON*       FAIR      48  43  82 NW5       30.04S
CHARLOTTSVILLE CLEAR     54  36  50 CALM      30.01S
GORDONSVILLE*  FAIR      47  43  87 CALM      30.02S
ORANGE*          N/A     50  43  76 CALM      30.05R
LOUISA*        CLEAR     48  46  93 CALM      30.02S
BUMPASS*       FAIR      44  44  97 CALM      30.03F
FARMVILLE*     CLOUDY    51  43  74 CALM      30.02R
CREWE*         FAIR      50  44  78 CALM      30.02F
FORT PICKETT*  FAIR      48  43  82 NE3       30.03S
CHASE CITY*    FAIR      50  42  74 CALM      30.02S
CLARKSVILLE*   FAIR      50  45  81 CALM      30.02R
SOUTH HILL*    CLEAR     50  44  79 CALM      30.07F
LAWRENCEVILLE* FAIR      49  44  82 NW3       30.02F
EMPORIA*       CLEAR     50  43  76 CALM      30.05S
$$

VAZ088>098-052300-
SOUTHEAST VIRGINIA

CITY           SKY/WX    TMP DP  RH WIND       PRES   REMARKS
NORFOLK        CLEAR     49  43  80 N9        30.04R
VIRGINIA BEACH MOCLDY    48  39  71 N9        30.03R
NORFOLK NAVAL  MOCLDY    49  43  80 N6        30.06R
WEST POINT*    PTCLDY    47  41  80 CALM      30.06S
SALUDA*        FAIR      47  46  94 CALM      30.04S
NEWPORT NEWS   CLEAR     49  40  71 NE3       30.04R
LANGLEY AFB    PTCLDY    47  44  90 NE6       30.04R
FORT EUSTIS    CLEAR     51  40  65 CALM      30.02R
WILLIAMSBURG*  CLEAR     50  43  76 CALM      30.05S
HR EXEC AP*    FAIR      50  39  66 NE5       30.02R
FRANKLIN*      CLEAR     48  41  76 CALM      30.03F
US460-WAKEFLD  CLEAR     46  42  86 CALM      30.04S
$$

VAZ020-022-025-037-045-052300-
WEST CENTRAL AND SOUTHWEST VIRGINIA

CITY           SKY/WX    TMP DP  RH WIND       PRES   REMARKS
STAUNTON*      PTCLDY    46  34  62 CALM      30.03R
WAYNESBORO*    FAIR      48  31  52 CALM      30.01R
HOT SPRINGS VA CLOUDY    41  27  56 NE3       29.97S
LYNCHBURG      CLEAR     49  41  74 S3        30.03R
DANVILLE       MOCLDY    51  44  77 E3        30.01S
SOUTH BOSTON*  FAIR      52  39  60 CALM      30.03R
MARTINSVILLE   MOCLDY    53  43  71 CALM      30.03R
ROANOKE        MOCLDY    53  35  50 NE5       30.03R
BLACKSBURG     PTCLDY    48  37  65 CALM      30.03S
DUBLIN*        CLOUDY    49  37  63 CALM      30.02S
MARION*        CLOUDY    49  38  65 SE3       30.01F
HILLSVILLE*    CLOUDY    48  37  65 CALM      29.99F
RICHLANDS*     FAIR      46  17  31 NE7       29.98F
WISE*          CLOUDY    45  37  76 CALM      29.98S
ABINGDON*      CLOUDY    51  41  70 E6        29.97F
$$

MDZ021>025-VAZ099-100-052300-
SOUTHERN MARYLAND AND THE DELMARVA PENINSULA

CITY           SKY/WX    TMP DP  RH WIND       PRES   REMARKS
PATUXENT RIVER PTCLDY    47  40  76 N3        30.04R
BAY BRIDGE APT PTCLDY    48  37  66 CALM      30.05R
LEONARDTOWN    CLEAR     45  41  87 CALM      30.06R
DOVER          PTCLDY    46  40  79 N5        30.03R
GEORGETOWN     CLEAR     49  40  71 N3        30.04R
EASTON         MOCLDY    50  37  62 CALM      30.08R
CAMBRIDGE      CLEAR     43  41  93 CALM      30.04R
SALISBURY      CLEAR     45  39  79 N7        30.03R
OCEAN CITY     CLEAR     45  39  79 NE5       30.03R
WALLOPS ISLAND CLEAR     47  41  80 NW3       30.04R
ACCOMACK*      CLOUDY    46  43  88 N5        30.03S
$$

NCZ012>017-030>032-052300-
NORTH CENTRAL AND EASTERN NORTH CAROLINA

CITY           SKY/WX    TMP DP  RH WIND       PRES   REMARKS
ROANOKE RAPIDS FAIR      52  43  71 NE5       30.03S
RALEIGH        MOCLDY    55  41  59 NE7       30.00F
ELIZABETH CITY CLEAR     51  42  71 N13       30.02S
AHOSKIE*       CLEAR     49  44  80 CALM      30.03F
EDENTON*       CLEAR     53  43  69 NE5       30.02S
CURRITUCK*     CLEAR     51  42  71 N6        30.03S
KILL DEVIL HLS PTCLDY    50  48  93 N7G16     29.99F
MANTEO         CLEAR     50  46  87 N13G22    30.01S
CAPE HATTERAS  CLOUDY    52  48  86 VRB7      30.00S
TARBORO*       NOT AVBL
GOLDSBORO      MOCLDY    56  47  70 NE5       29.98S
WASHINGTON     CLEAR     53  46  76 NE5       30.02R
GREENVILLE     CLEAR     55  45  67 NE7       30.03S
NEW BERN       MOCLDY    56  48  74 NE12      30.01R
WILMINGTON     CLEAR     55  49  80 NE5       30.00R
$$

VAZ048-052300-
ELSEWHERE

CITY           SKY/WX    TMP DP  RH WIND       PRES   REMARKS
HARRISBURG PA  PTCLDY    44  31  60 NW7G18    30.05R
BALTIMORE      MOCLDY    49  36  61 NW6       30.05R
ANNAPOLIS      PTCLDY    51  37  58 NW3       30.05R
ANDREWS AFB    CLOUDY    47  35  63 N7        30.03S
PHILADELPHIA   PTCLDY    49  32  52 NW8       30.04S
HENDERSON NC   PTCLDY    49  40  72 CALM      30.02S
GREENSBORO     CLOUDY    54  43  66 E10       30.00R
ROCKY MOUNT    CLEAR     54  44  69 NE8       30.01S
$$

VAZ100-052300-
MARINE

STATION/POSITION TIME  TEMP    WIND        PRES    WAVE   SWELL
                       AIR SEA DIR/SP/G            HT/PER HT/PER
                 (UTC) (F)     (DEG/KT/KT) (MB)    (FT/S) (FT/S)
BRANDYWINE LGT   2148   48     360/ 17/ 19   N/A
CAPE MAY NJ      2148   48 48  340/  6/ 10 1016.7R
LEWES DE         2148   49 49  340/  9/ 12 1016.9R
OCEAN-CITY-INLET 2148   48 51   30/  7/ 10 1017.2R
WACHAPREAGUE VA  2148   47 50  340/  4/  5 1016.7R
THOMAS POINT MD  2200   51 49  280/  2/  2   N/A
GOOSES REEF MD   2150   49      50/  2/  4 1017.9R
COVE POINT MD    2148   48      30/  4/  4 1017.7R
SOLOMONS ISLAND  2148           40/  4/  5   N/A
BISHOPS HEAD MD  2148   47 47  350/  3/  4 1017.3S
PINEY POINT MD   2148           60/  2/  3   N/A
POTOMAC MD       2150   48      CALM  /  2 1016.4R
CAMBRIDGE MD     2148   49 47  350/  6/  8 1016.3R
LEWISETTA VA     2148   48 49  160/  4/  4 1017.0R
RAPPAHANNOCK LGT 2148          340/ 10/ 11 1017.7R
STINGRAY PT      2150   49      50/ 10/ 12 1017.5R
YORK RVR RNG VA  2148   49      60/  9/ 10 1016.8R
YORKTOWN VA      2148   52 52   10/  6/  8 1016.9R
JAMESTOWN VA     2150   51      10/  2/  2   N/A
DOMINION TERM VA 2148   51      40/  3/  6 1017.3R
KIPTOPEKE VA     2148      52   10/  7/ 10   N/A
CHES BAY BRIDGE  2148   50 55   20/ 16/ 18 1016.9R
CAPE HENRY VA    2148   50     350/ 18/ 21   N/A
WILLOUBY STN VA  2148   49      10/  7/  8 1018.2R
S CRANEY ISL VA  2148   50      30/  9/ 11 1016.9R
CAPE HENRY BUOY  2142      56                N/A     3/ 4
1ST LANDING BUOY 2150   50                 1017.3R
CAPE CHARLES BUO 2156      55                N/A     3/ 9
OFFSHORE WE BUOY 2151      56                N/A     4/ 8
64NM E OF VA BCH 2150   53 60   10/ 21/ 23 1015.3R   6/ 5   2/14
DUCK PIER NC     2148   51 54   10/ 18/ 21 1015.4S
44100 DUCK FRF   2135      56                N/A     5/ 5
OREGON INLET NC  2148          360/ 15/ 21 1015.7R
HATTERAS NC      2148   53 60   10/ 17/ 20 1015.5R
DIAMOND SHLS NC  2150   57 71   10/ 17/ 21 1015.5R   5/ 5   2/ 8
CAPE LOOKOUT NC  2100   56      10/ 15/ 19 1015.1R
$$




USA.gov is the U.S. government's official web portal to all federal, state and local government web resources and services.